Location: Nordegg
(52.4712°N, 116.0743°W)
Time: 15:12:35
(UTC+00:00)

Envisat - Pass Details

Date: 07 December 2021
Orbit: 764 x 766 km, 98.2° (Epoch: 26 January)

Event Time Altitude Azimuth Distance (km) Brightness Sun altitude
Rises 13:38:21 0° 11° (N) 3,248 6.2 -17.4°
Reaches altitude 10° 13:40:44 10° 6° (N) 2,317 5.4 -17.1°
Maximum altitude 13:45:37 48° 293° (WNW) 1,003 3.2 -16.4°
Drops below altitude 10° 13:50:28 10° 220° (SW) 2,301 5.2 -15.7°
Sets 13:52:49 0° 215° (SW) 3,222 6.1 -15.3°
